Dewpoint
70 72 73 74 74 74 75 75 75 75 75 74 74 74 73 73 73 73 73 73 73 73 73 73 72 72 72 72 73 73 73 73 72 72 72 72 71 71 72 72 72 71 71 72 72 71 69 68 68 68 70 70 70 71 71 70 69 68 68 68 68 67 67 67 67 66 65 65 65 66 66 66 65 64 64 65 64 63 64 64 64 64 65 66 68
70 72 73 73 74 75 75 75 75 74 74 74 74 74 73 74 74 73 73 73 73 73 73 73 73 72 72 72 72 73 73 73 73 72 72 72 71 71 72 73 73 73 73 72 71 70 70 69 69 68 69 70 70 70 70 69 69 68 68 68 68 67 67 67 67 66 66 66 66 66 66 66 65 64 64 64 63 63 64 64 63 62 65 67 68
70 72 73 73 75 75 75 75 74 74 74 74 74 73 73 74 73 73 73 73 73 73 73 72 72 72 72 72 72 72 72 73 72 72 72 72 72 71 71 71 72 72 71 71 70 70 70 69 69 68 69 69 69 69 69 68 68 68 68 68 68 68 68 67 66 66 67 67 66 66 65 65 66 66 65 64 63 63 63 63 63 64 64 67 68
70 72 73 74 75 75 74 75 74 74 74 74 74 74 74 74 73 73 73 73 73 73 73 72 72 72 72 72 72 72 72 72 72 72 72 71 71 71 71 71 71 71 71 70 70 70 69 68 68 68 68 69 69 69 69 68 68 68 68 69 68 68 68 67 66 67 67 66 66 65 65 62 63 65 64 64 63 62 62 62 63 63 65 65 67
71 72 73 73 74 74 74 74 74 74 74 74 74 74 74 73 73 73 73 73 73 73 73 72 72 72 72 72 71 71 71 71 71 71 71 71 71 71 70 69 70 70 71 70 70 69 69 69 68 68 67 68 67 67 68 68 68 68 68 69 69 69 68 67 67 67 66 66 66 65 62 62 63 64 64 64 63 62 62 62 61 62 63 64 67
71 72 72 73 74 74 74 74 74 74 74 74 73 73 73 74 73 73 73 73 73 73 73 72 72 72 72 71 71 71 71 71 71 71 72 71 72 71 68 68 69 70 69 69 69 68 68 68 68 68 68 68 68 67 68 68 68 68 68 68 68 68 67 68 68 67 67 67 69 67 60 60 62 63 64 64 63 63 62 63 62 61 60 64 64
71 71 71 73 73 74 74 74 74 74 74 74 74 73 74 73 74 73 73 73 73 73 73 72 72 72 72 71 71 71 71 71 71 72 72 72 72 71 68 67 67 68 69 68 68 68 68 68 68 68 68 68 68 68 68 68 68 68 68 68 67 67 67 67 67 67 67 68 67 66 61 62 63 62 65 63 63 62 62 61 61 63 64 63 64
70 70 71 72 73 74 74 74 74 74 74 74 73 73 73 73 73 73 73 73 73 73 72 72 72 72 71 71 71 71 70 70 70 70 71 71 71 71 70 68 67 67 67 67 67 68 68 68 68 68 68 68 68 67 67 68 68 68 68 67 68 67 67 68 67 67 68 67 66 63 61 62 64 64 65 64 63 62 62 62 62 63 62 62 65
69 70 71 72 73 74 74 74 74 74 74 73 73 73 73 73 73 73 73 73 73 73 72 72 72 71 71 71 71 71 70 70 70 70 69 70 70 70 70 69 68 69 70 71 71 69 68 68 68 68 68 68 68 68 68 68 68 68 68 68 68 68 68 69 68 69 68 67 61 60 60 62 63 63 64 63 62 62 62 63 63 62 61 64 64
68 70 72 72 73 74 74 73 74 74 74 73 73 73 73 74 73 73 73 73 73 73 72 72 72 72 71 71 71 71 70 70 70 70 69 69 69 69 68 69 68 68 68 68 68 68 68 68 68 69 68 68 69 69 69 69 69 69 69 69 69 69 69 69 70 68 65 60 61 62 63 64 62 62 64 64 63 63 63 62 62 61 61 61 61
69 70 72 72 73 73 73 73 74 74 73 73 73 73 73 73 73 73 73 73 73 72 72 72 72 72 71 71 71 71 70 70 70 70 69 69 69 70 69 68 69 69 68 68 68 68 68 68 69 68 69 70 69 69 69 69 69 69 69 69 69 69 69 69 69 66 66 63 63 63 64 66 62 63 64 63 64 63 62 62 62 62 62 62 62
69 70 72 73 73 73 73 73 74 74 73 73 73 73 73 73 73 73 73 73 73 72 72 72 72 71 71 71 71 71 71 70 70 70 70 69 69 69 69 68 68 68 68 68 68 68 69 69 69 69 68 69 68 69 69 69 68 69 69 68 68 69 69 70 69 66 61 61 62 62 62 62 63 64 64 63 63 62 62 62 62 61 61 61 61
69 71 72 72 72 73 73 73 73 74 73 73 73 73 73 73 73 73 73 73 72 72 72 72 72 72 72 72 72 72 72 71 70 70 70 70 70 69 69 69 68 68 68 67 68 69 69 69 69 69 69 69 69 68 68 68 68 68 69 69 69 70 70 70 68 67 60 61 62 62 63 63 62 64 64 62 62 62 62 62 62 62 62 62 62
70 71 71 72 72 74 73 73 73 73 73 73 73 73 73 73 73 73 73 72 72 72 72 72 72 72 72 71 71 71 71 71 70 69 70 70 70 69 69 69 68 68 69 69 69 70 70 70 69 69 69 69 69 68 67 67 68 68 68 69 69 69 70 69 68 62 61 62 63 62 63 64 64 66 65 65 64 63 62 62 62 62 62 62 62
69 70 71 72 72 72 74 73 73 73 73 73 73 73 73 73 73 73 72 72 72 72 72 72 71 71 71 71 71 71 71 71 71 70 69 70 70 69 69 69 69 69 70 70 70 70 70 70 69 69 69 68 68 67 67 68 68 68 69 69 69 70 70 69 67 64 62 62 63 63 63 64 66 65 64 64 63 62 62 62 62 62 61 61 61
70 70 71 71 72 72 72 73 73 73 73 73 72 73 73 73 72 72 72 72 72 72 72 72 71 71 71 71 71 71 71 71 70 71 69 69 69 69 69 70 70 69 70 70 70 70 69 69 69 69 69 69 68 68 67 68 68 68 69 68 70 70 70 70 68 65 61 62 62 63 64 64 67 65 64 63 63 63 62 62 62 62 62 62 61
70 70 70 70 71 71 71 72 73 73 72 72 72 72 72 72 72 72 72 72 72 71 71 71 71 71 71 70 71 71 70 70 70 70 69 69 69 69 70 69 69 69 69 69 69 69 69 69 69 69 69 68 67 67 66 68 68 68 69 69 69 69 70 70 69 65 62 63 63 62 62 62 65 66 65 65 64 63 62 62 62 62 62 62 61
69 69 69 69 70 70 71 71 71 71 71 71 72 72 72 72 72 72 71 71 71 71 70 70 70 70 70 70 71 71 71 70 70 70 70 69 70 69 69 69 68 69 69 69 69 69 68 68 68 68 68 68 67 67 67 67 68 68 69 69 69 69 70 71 67 62 62 64 62 64 64 67 67 65 64 64 64 64 64 63 62 61 61 61 61
68 68 67 67 69 70 70 70 71 71 70 70 70 71 71 71 71 71 71 71 71 71 70 70 70 70 71 70 70 70 70 70 70 70 70 70 70 70 69 69 69 69 68 68 68 67 67 68 67 68 68 67 66 67 68 67 68 68 68 68 69 70 71 70 65 62 63 63 63 63 64 67 66 64 64 64 64 63 64 63 61 60 61 61 61
68 67 66 67 68 69 69 70 70 70 69 70 70 69 70 71 71 71 71 71 71 70 70 70 70 70 71 70 70 70 70 70 70 70 70 70 70 70 69 69 69 68 68 68 67 67 67 67 67 68 67 67 67 67 68 68 67 68 68 68 68 69 68 67 66 62 63 63 64 63 66 67 65 64 64 64 63 63 63 63 62 62 62 63 63
67 66 66 68 69 69 69 69 70 69 69 69 68 69 70 71 71 71 71 71 71 71 70 70 70 70 70 71 70 69 69 69 69 69 70 70 70 69 69 69 69 68 68 68 67 67 67 67 67 67 67 67 67 68 68 68 68 68 68 68 69 67 66 66 62 64 64 64 65 64 67 65 65 64 65 64 64 62 63 63 63 62 62 62 62
66 67 68 69 69 69 68 69 69 68 68 68 67 68 69 70 69 70 70 70 71 71 70 70 70 69 70 69 69 69 69 69 69 71 70 70 70 69 69 69 68 68 67 67 67 66 67 66 67 67 67 67 67 66 66 67 67 68 68 68 66 65 65 66 61 62 63 64 65 66 67 66 65 65 64 64 63 62 63 64 63 63 63 63 62
66 66 67 68 68 68 68 68 68 68 68 67 67 67 67 68 69 69 70 70 70 70 70 70 69 69 69 69 68 67 68 68 69 69 70 70 70 69 69 69 68 68 67 67 67 67 66 67 67 66 66 66 64 64 64 62 62 66 68 66 65 64 65 65 62 63 63 65 65 67 67 67 65 64 64 63 62 64 64 64 63 61 62 62 62
65 65 66 67 68 68 68 68 68 68 68 67 67 67 67 68 68 69 68 69 68 69 68 69 69 68 68 68 68 68 68 68 68 68 70 69 69 69 69 69 68 68 67 67 67 66 67 67 67 66 68 66 62 61 60 61 61 61 64 64 64 63 63 64 62 63 64 66 65 68 67 67 66 64 64 63 63 63 65 65 63 63 63 63 63
65 65 66 66 67 67 68 68 68 68 67 67 67 67 67 67 68 68 67 68 68 68 68 68 68 68 68 68 68 69 69 68 68 67 68 68 67 68 68 67 67 67 68 65 65 66 66 65 64 65 63 64 63 62 62 62 62 62 63 63 63 63 63 63 63 63 64 65 66 67 67 67 66 64 64 63 63 66 65 65 64 63 63 63 61
65 65 65 66 67 68 68 68 68 68 67 67 67 68 67 66 67 67 66 66 68 68 68 68 68 68 68 68 69 68 68 68 67 67 66 66 67 67 66 66 66 66 67 66 65 65 65 65 65 65 64 64 64 63 63 63 62 61 60 60 61 64 63 63 63 63 64 66 67 68 67 67 66 64 63 63 63 65 64 64 64 63 62 63 62
65 65 65 66 67 68 68 68 68 68 67 67 67 67 66 66 66 67 66 66 67 67 67 68 68 67 67 68 67 66 66 65 65 65 65 65 66 66 66 66 67 66 68 65 65 66 65 65 64 64 63 64 64 64 64 63 62 60 60 60 60 64 64 66 63 64 65 66 68 68 68 67 66 64 64 63 63 63 64 64 63 63 63 62 63
64 65 66 66 67 67 68 68 67 67 67 67 67 66 67 66 67 69 67 68 67 66 66 67 67 67 67 67 68 66 65 65 64 65 65 65 65 66 66 66 66 65 67 66 65 65 65 65 64 64 65 65 64 64 64 63 63 62 61 61 60 62 63 63 64 64 65 66 67 68 68 67 67 65 64 63 63 63 63 63 63 63 63 63 62
64 65 66 66 66 67 68 67 67 67 67 67 67 67 67 67 67 67 66 68 65 65 66 66 67 67 67 67 68 66 65 65 64 65 65 66 65 65 65 65 65 65 66 65 65 65 64 65 64 64 64 64 64 64 65 65 65 62 62 61 61 61 63 64 64 64 65 67 67 68 69 68 67 66 64 63 63 63 63 63 63 62 62 64 63
64 65 66 66 66 67 68 67 67 67 67 67 66 67 66 66 66 67 67 68 66 67 67 67 66 66 66 66 66 66 65 65 64 65 64 65 65 64 65 65 64 65 65 64 65 65 65 64 64 63 64 63 64 65 65 65 66 62 62 62 63 64 64 65 65 65 65 66 67 67 68 68 68 67 66 64 62 63 63 63 63 62 62 64 64
65 65 66 66 65 66 67 68 68 68 68 67 66 67 67 67 66 67 67 67 67 68 67 67 66 65 65 65 65 65 65 66 65 65 64 65 63 63 64 64 64 64 64 64 66 65 65 64 64 64 63 62 64 65 66 65 65 62 62 62 62 63 64 65 66 66 65 64 66 67 67 68 68 68 67 66 65 63 63 63 62 61 62 63 65
64 64 65 65 65 65 66 67 67 67 66 67 67 66 66 67 67 67 67 67 68 67 66 66 67 65 65 65 65 65 65 65 65 65 64 64 63 63 64 63 63 64 64 65 65 64 64 64 65 64 64 64 64 64 65 65 65 63 62 62 63 63 64 64 65 64 66 66 65 66 66 67 68 68 68 67 66 66 63 63 63 62 61 62 65
65 65 64 64 65 65 66 66 66 66 67 67 66 66 66 67 67 66 68 68 67 66 65 64 64 65 65 65 65 64 64 64 65 65 65 63 62 63 63 63 63 63 64 65 66 65 64 64 64 64 63 64 63 64 66 64 64 64 63 62 64 64 64 64 65 65 66 67 66 66 66 66 66 67 67 68 67 66 66 64 63 62 61 62 66
65 64 64 64 65 65 66 66 66 67 66 66 66 66 66 66 66 67 67 67 67 66 66 65 66 65 65 65 65 65 64 64 63 64 64 63 63 63 64 63 63 65 65 65 65 64 63 63 63 63 65 63 63 63 63 63 63 63 64 63 63 64 65 65 65 66 66 67 66 65 65 65 65 65 66 67 68 67 66 66 63 63 62 61 62
64 63 63 64 64 64 66 66 66 67 67 66 66 65 66 66 65 66 66 66 66 65 65 65 65 64 65 64 65 65 65 64 64 65 63 63 63 64 64 64 65 65 65 64 63 62 63 63 63 63 62 63 63 64 63 63 63 64 63 63 63 64 64 64 65 65 65 65 66 65 64 65 65 65 65 65 67 66 65 65 62 63 62 61 60
64 63 63 63 63 64 65 65 66 65 65 66 66 66 66 65 65 68 66 67 66 66 65 66 65 65 65 64 64 64 64 64 65 65 64 63 62 62 63 65 65 64 64 63 63 63 62 63 62 63 62 63 64 64 63 63 63 64 64 64 64 64 63 64 65 66 67 65 65 66 65 65 64 64 66 64 64 65 66 66 65 65 64 61 60
64 63 62 63 64 64 65 65 65 65 66 67 67 66 66 66 67 67 67 67 65 66 66 66 65 65 66 64 64 64 64 65 65 65 64 64 63 63 65 65 65 65 63 63 62 63 62 64 62 63 62 62 63 64 64 63 63 64 64 64 63 63 63 64 64 65 66 64 64 66 65 64 65 68 64 65 64 65 67 67 66 66 66 67 64
64 63 64 64 64 64 64 64 64 64 65 65 65 66 66 66 66 66 67 66 65 65 65 64 64 64 64 65 65 65 65 65 65 65 64 65 64 64 64 64 65 64 64 63 62 63 63 63 62 62 63 63 62 61 62 62 63 63 63 64 64 63 63 63 64 66 64 64 64 65 65 65 65 65 65 65 65 64 65 66 67 67 66 65 65
64 63 63 64 64 64 64 63 63 63 65 65 65 65 66 66 66 66 66 65 64 64 64 63 64 63 64 65 66 65 65 65 65 66 64 64 64 64 63 63 64 63 62 62 62 63 63 62 62 62 63 63 62 62 61 62 62 62 63 64 63 63 63 64 64 64 64 64 65 66 66 64 65 65 64 65 65 65 65 64 63 64 65 66 66
63 63 63 64 63 63 62 63 64 64 65 64 64 63 65 64 64 64 63 63 63 63 61 61 62 62 64 64 65 65 65 65 65 65 65 64 64 63 63 63 63 62 62 62 61 62 62 62 61 62 61 62 63 61 61 61 61 62 62 63 63 63 63 63 63 63 63 64 64 63 65 65 65 64 65 65 65 65 64 64 65 64 65 66 66
63 62 62 62 62 62 62 62 64 65 64 63 62 63 63 63 62 61 60 58 60 61 61 60 61 61 61 62 64 63 64 65 65 64 65 66 64 64 63 62 62 62 62 62 62 62 63 63 62 62 61 60 61 62 61 60 60 58 61 61 62 63 64 62 62 62 63 64 64 63 64 63 63 64 64 65 65 65 64 64 63 63 64 63 63
62 61 61 62 62 63 63 63 64 64 63 63 62 61 63 61 60 58 58 58 58 57 58 58 58 60 61 61 61 61 63 63 64 64 64 64 63 64 64 62 62 61 62 62 63 64 63 63 63 61 62 60 60 62 62 60 57 57 58 58 59 60 62 62 62 63 64 63 63 63 63 63 63 63 64 64 65 65 64 63 62 62 62 63 63
61 61 61 62 63 63 63 64 64 63 63 63 63 63 63 62 59 57 56 56 58 58 56 58 61 60 60 60 60 61 61 61 63 63 63 63 63 63 63 63 63 63 62 61 62 62 62 62 62 61 60 60 60 62 61 61 57 58 58 57 54 54 57 60 61 62 63 63 63 63 63 63 63 63 63 63 64 64 65 64 63 63 63 63 63
61 61 61 61 63 63 63 63 63 63 63 62 63 62 63 62 60 60 57 55 55 58 58 59 58 59 60 61 61 62 61 60 61 62 62 63 62 62 63 63 63 63 63 61 61 61 61 61 61 61 60 58 59 60 62 62 60 57 54 54 54 54 53 54 57 60 62 62 62 62 63 63 62 63 63 63 63 63 63 63 63 63 63 63 63
60 61 61 62 63 63 63 63 62 62 63 63 62 62 61 58 57 57 57 56 55 54 54 56 58 60 58 58 58 57 57 57 57 58 60 61 62 62 62 62 63 64 63 62 61 62 62 61 60 61 60 59 58 59 61 61 60 60 57 54 52 52 51 55 57 57 60 61 61 61 62 62 61 62 62 63 63 62 62 62 63 63 64 64 64
61 61 61 62 62 63 63 63 63 63 62 62 62 61 60 56 53 53 52 53 52 52 53 53 54 56 57 58 60 60 59 57 58 60 61 61 60 62 62 62 62 63 62 62 62 63 63 62 62 61 60 60 59 58 59 61 60 60 60 58 55 53 54 56 55 53 60 61 60 61 62 62 61 61 62 62 61 61 61 62 63 63 63 62 61
60 61 61 61 63 63 63 63 63 62 62 61 61 61 60 57 54 52 52 51 52 55 56 56 55 56 56 55 55 58 58 58 59 58 59 60 60 61 61 61 61 61 62 61 60 61 61 62 62 62 61 61 59 56 58 59 58 59 61 60 61 60 59 55 53 55 54 58 60 60 60 62 61 62 62 62 61 61 62 62 63 63 63 62 61
61 60 61 63 63 63 62 62 62 62 61 61 60 60 58 58 55 53 54 53 55 55 55 55 56 56 55 56 57 57 57 57 57 59 59 60 59 58 59 60 60 59 60 58 59 60 60 61 61 61 60 60 59 58 58 58 57 57 59 59 59 60 60 59 57 54 54 54 55 59 59 60 61 61 61 61 61 62 62 63 62 62 61 59 57
61 61 63 63 63 62 61 61 61 61 60 60 60 60 59 60 60 58 59 57 55 53 55 55 54 55 54 57 58 57 58 58 59 58 58 59 58 58 57 57 57 58 58 58 59 60 61 60 60 60 59 60 60 59 58 58 58 57 58 57 58 58 58 58 58 57 55 54 54 56 57 59 59 60 61 61 61 62 62 62 60 56 54 52 53
62 63 63 62 62 61 61 61 60 60 60 60 60 59 60 61 60 58 55 54 53 53 54 53 52 55 57 56 56 56 55 55 56 57 58 59 58 55 53 55 57 57 58 58 59 59 59 60 60 60 60 60 60 59 59 59 59 59 58 57 57 56 56 56 57 56 55 54 53 55 56 56 56 57 59 60 61 61 61 59 54 51 51 51 50
63 63 62 61 61 61 61 60 60 60 60 60 59 59 60 61 60 56 54 53 53 54 54 53 56 55 54 55 56 57 56 56 55 56 56 56 57 58 56 57 58 59 58 57 57 59 58 58 59 59 59 59 59 59 59 58 58 57 58 57 56 56 55 55 56 56 54 53 54 54 55 56 56 57 58 59 60 60 58 54 50 50 50 50 50